This is the latest recevied weather packets stored in our database for station/object N5YHM-13. If no packets are shown the sender has not sent any weather packets the latest 10 day(s).
| Time | Temp. | Humidity | Pressure | Rain* | Wind** | Luminosity | Snow |
|---|---|---|---|---|---|---|---|
| 1787941533 | 32.22° C | 73% | 1018.4 hPa | 0 mm | - | 297 W/m² | - |
| 1787941227 | 32.22° C | 73% | 1018.2 hPa | 0 mm | - | 20 W/m² | - |
| 1787940922 | 31.67° C | 70% | 1018.1 hPa | 0 mm | - | 144 W/m² | - |
| 1787940621 | 31.67° C | 71% | 1018.3 hPa | 0 mm | - | 60 W/m² | - |
| 1787940320 | 31.67° C | 71% | 1018.4 hPa | 0 mm | - | 85 W/m² | - |
| 1787940020 | 31.67° C | 74% | 1018.4 hPa | 0 mm | - | 19 W/m² | - |
| 1787939714 | 31.67° C | 71% | 1018.3 hPa | 0 mm | - | 16 W/m² | - |
| 1787939413 | 31.11° C | 74% | 1018.5 hPa | 0 mm | - | 17 W/m² | - |
| 1787939108 | 31.11° C | 75% | 1018.5 hPa | 0 mm | - | 17 W/m² | - |
| 1787938808 | 31.11° C | 73% | 1018.4 hPa | 0 mm | - | 18 W/m² | - |
| 1787938502 | 31.11° C | 72% | 1018.6 hPa | 0 mm | - | 17 W/m² | - |
| 1787938198 | 30.56° C | 75% | 1018.6 hPa | 0 mm | - | 17 W/m² | - |
| 1787937893 | 31.11° C | 74% | 1018.7 hPa | 0 mm | - | 17 W/m² | - |
| 1787937589 | 31.11° C | 74% | 1018.7 hPa | 0 mm | - | 24 W/m² | - |
| 1787937285 | 30.56° C | 76% | 1018.9 hPa | 0 mm | - | 19 W/m² | - |
| 1787936980 | 30.56° C | 77% | 1019 hPa | 0 mm | - | 44 W/m² | - |
| 1787936679 | 31.11° C | 75% | 1018.9 hPa | 0 mm | - | 25 W/m² | - |
| 1787936374 | 31.11° C | 75% | 1018.8 hPa | 0 mm | - | 22 W/m² | - |
| 1787936069 | 30.56° C | 76% | 1018.8 hPa | 0 mm | - | 19 W/m² | - |
| 1787935764 | 30.56° C | 76% | 1018.9 hPa | 0 mm | - | 17 W/m² | - |
| 1787935460 | 30.56° C | 77% | 1018.9 hPa | 0 mm | - | 18 W/m² | - |
| 1787935157 | 30.56° C | 78% | 1018.8 hPa | 0 mm | - | 19 W/m² | - |
| 1787934852 | 30.56° C | 77% | 1018.9 hPa | 0 mm | - | 14 W/m² | - |
| 1787934551 | 30.56° C | 77% | 1018.9 hPa | 0 mm | - | 26 W/m² | - |
| 1787934246 | 30.56° C | 79% | 1018.7 hPa | 0 mm | - | 21 W/m² | - |
* Rain latest hour (hover to see other rain measurements)
** Current wind speed in m/s (hover to see current wind gust speed)